Date Time,Air Temp,Sky Temp,Clarity,Light Level,Rain Sensor,Readings
2015-02-12 00:00:04,13.6,1.2,12.4,0.0,2.0,111
2015-02-12 00:05:04,13.6,1.1,12.5,0.0,1.9,111
2015-02-12 00:10:04,13.6,1.2,12.5,0.0,1.9,111
2015-02-12 00:15:04,13.6,1.2,12.4,0.0,1.8,111
2015-02-12 00:20:04,13.6,1.6,12.0,0.0,2.1,111
2015-02-12 00:25:04,13.6,0.8,12.7,0.0,2.0,111
2015-02-12 00:30:04,13.4,0.2,13.1,0.0,1.8,112
2015-02-12 00:35:04,13.1,-0.1,13.2,0.0,1.7,112
2015-02-12 00:40:04,13.0,0.5,12.4,0.0,2.0,111
2015-02-12 00:45:04,13.0,0.5,12.5,0.0,2.2,111
2015-02-12 00:50:04,13.0,0.5,12.5,0.0,2.2,111
2015-02-12 00:55:04,13.0,0.2,12.9,0.0,2.2,111
2015-02-12 01:00:04,13.0,0.5,12.5,0.0,2.2,112
2015-02-12 01:05:04,13.0,0.6,12.4,0.0,2.1,111
2015-02-12 01:10:04,13.0,0.7,12.3,0.0,2.2,111
2015-02-12 01:15:04,13.0,0.8,12.2,0.0,2.2,111
2015-02-12 01:20:04,13.1,0.8,12.3,0.0,2.2,111
2015-02-12 01:25:04,13.1,0.6,12.5,0.0,2.0,111
2015-02-12 01:30:04,13.0,0.4,12.7,0.0,2.2,111
2015-02-12 01:35:04,13.0,0.2,12.8,0.0,2.3,111
2015-02-12 01:40:04,12.9,0.1,12.8,0.0,2.3,112
2015-02-12 01:45:04,12.9,1.1,11.9,0.0,2.3,111
2015-02-12 01:50:04,12.9,0.5,12.4,0.0,2.3,111
2015-02-12 01:55:04,12.9,-0.1,13.0,0.0,2.3,112
2015-02-12 02:00:04,12.8,-0.4,13.2,0.0,2.3,112
2015-02-12 02:05:04,12.6,-0.6,13.2,0.0,2.3,112
2015-02-12 02:10:04,12.5,-0.6,13.2,0.0,2.3,112
2015-02-12 02:15:04,12.5,-0.1,12.6,0.0,2.3,112
2015-02-12 02:20:04,12.6,-0.2,12.7,0.0,2.3,112
2015-02-12 02:25:04,12.6,0.6,12.0,0.0,2.3,111
2015-02-12 02:30:04,12.8,0.9,11.8,0.0,2.3,111
2015-02-12 02:35:04,12.8,0.1,12.8,0.0,2.3,112
2015-02-12 02:40:04,12.7,0.0,12.6,0.0,2.3,112
2015-02-12 02:45:04,12.7,0.5,12.2,0.0,2.3,111
2015-02-12 02:50:04,12.8,0.3,12.5,0.0,2.4,111
2015-02-12 02:55:04,12.7,-0.2,12.9,0.0,2.3,112
2015-02-12 03:00:04,12.7,-0.0,12.7,0.0,2.3,111
2015-02-12 03:05:04,12.6,-0.4,13.0,0.0,2.3,112
2015-02-12 03:10:04,12.7,-0.3,12.9,0.0,2.3,112
2015-02-12 03:15:04,12.6,-0.5,13.1,0.0,2.3,112
2015-02-12 03:20:04,12.6,-0.1,12.6,0.0,2.4,112
2015-02-12 03:25:04,12.6,-0.1,12.7,0.0,2.3,112
2015-02-12 03:30:04,12.7,0.3,12.3,0.0,2.3,111
2015-02-12 03:35:04,12.7,0.5,12.2,0.0,2.3,111
2015-02-12 03:40:04,12.8,-0.1,12.9,0.0,2.3,112
2015-02-12 03:45:04,12.7,0.1,12.6,0.0,2.3,112
2015-02-12 03:50:04,12.8,-0.0,12.8,0.0,2.3,112
2015-02-12 03:55:04,12.8,-0.2,13.0,0.0,2.3,112
2015-02-12 04:00:04,12.7,-0.3,13.0,0.0,2.3,112
2015-02-12 04:05:04,12.6,-0.4,13.0,0.0,2.3,112
2015-02-12 04:10:04,12.5,-0.6,13.1,0.0,2.4,112
2015-02-12 04:15:04,12.5,-0.4,12.9,0.0,2.4,112
2015-02-12 04:20:04,12.5,-0.1,12.6,0.0,2.5,112
2015-02-12 04:25:04,12.7,0.2,12.5,0.0,2.4,111
2015-02-12 04:30:04,12.8,-0.1,12.9,0.0,2.3,112
2015-02-12 04:35:04,12.8,-0.1,12.9,0.0,2.3,112
2015-02-12 04:40:04,12.8,-0.1,12.9,0.0,2.3,112
2015-02-12 04:45:04,12.8,-0.1,12.9,0.0,2.3,112
2015-02-12 04:50:04,12.8,0.4,12.5,0.0,2.3,111
2015-02-12 04:55:04,12.9,-0.1,13.0,0.0,2.3,112
2015-02-12 05:00:04,12.8,-0.3,13.1,0.0,2.3,112
2015-02-12 05:05:04,12.7,0.2,12.5,0.0,2.3,111
2015-02-12 05:10:04,12.7,0.2,12.5,0.0,2.3,112
2015-02-12 05:15:04,12.8,-0.0,12.8,0.0,2.3,112
2015-02-12 05:20:04,12.8,0.6,12.2,0.0,2.3,111
2015-02-12 05:25:04,12.9,0.7,12.3,0.0,2.3,111
2015-02-12 05:30:04,13.0,0.4,12.6,0.0,2.4,111
2015-02-12 05:35:04,13.1,0.5,12.5,0.0,2.3,111
2015-02-12 05:40:04,13.1,0.6,12.5,0.0,2.3,111
2015-02-12 05:45:04,13.1,0.5,12.6,0.0,2.3,111
2015-02-12 05:50:04,13.1,0.2,12.9,0.0,2.3,112
2015-02-12 05:55:04,13.0,-0.2,13.2,0.0,2.3,112
2015-02-12 06:00:04,12.9,-0.1,13.0,0.0,2.3,112
2015-02-12 06:05:03,12.9,0.4,12.5,0.0,2.3,73
2015-02-12 06:10:03,12.9,0.3,12.6,0.0,2.4,112
2015-02-12 06:15:03,12.9,-0.0,12.9,0.0,2.4,111
2015-02-12 06:20:03,12.9,0.2,12.8,0.0,2.4,112
2015-02-12 06:25:03,13.0,0.3,12.7,0.0,2.4,111
2015-02-12 06:30:03,13.0,0.2,12.8,0.1,2.4,112
2015-02-12 06:35:03,13.0,0.1,12.8,0.2,2.4,111
2015-02-12 06:40:03,13.0,0.2,12.8,0.4,2.4,112
2015-02-12 06:45:03,13.0,0.3,12.7,0.9,2.4,112
2015-02-12 06:50:03,13.0,0.4,12.6,1.9,2.3,111
2015-02-12 06:55:03,13.0,0.2,12.8,3.8,2.3,111
2015-02-12 07:00:03,13.0,0.4,12.6,7.1,2.3,112
2015-02-12 07:05:03,13.1,0.2,12.9,11.7,2.3,111
2015-02-12 07:10:03,13.1,0.2,12.8,17.0,2.3,112
2015-02-12 07:15:03,13.0,-0.4,13.4,21.4,2.3,112
2015-02-12 07:20:03,12.8,-0.2,13.0,24.5,2.3,112
2015-02-12 07:25:03,12.8,0.5,12.3,26.6,2.3,111
2015-02-12 07:30:03,12.8,1.0,11.8,28.0,2.3,111
2015-02-12 07:35:03,13.0,0.5,12.5,29.0,2.3,111
2015-02-12 07:40:03,13.0,1.0,12.1,29.7,2.3,112
2015-02-12 07:45:03,13.1,0.7,12.5,30.2,2.2,111
2015-02-12 07:50:03,13.2,0.4,12.8,30.5,2.1,111
2015-02-12 07:55:03,13.2,0.1,13.1,30.8,1.9,112
2015-02-12 08:00:03,13.2,-0.1,13.4,31.0,2.0,112
2015-02-12 08:05:03,13.2,0.2,12.9,31.2,1.9,111
2015-02-12 08:10:03,13.2,1.0,12.2,31.3,1.7,111
2015-02-12 08:15:03,13.3,0.8,12.4,31.4,1.7,112
2015-02-12 08:20:03,13.3,0.3,13.0,31.5,1.7,111
2015-02-12 08:25:03,13.4,0.5,12.8,31.6,1.6,111
2015-02-12 08:30:03,13.4,-0.2,13.6,31.7,1.6,112
2015-02-12 08:35:03,13.3,0.3,12.9,31.8,1.7,111
2015-02-12 08:40:03,13.3,0.5,12.8,31.8,1.6,111
2015-02-12 08:45:03,13.3,0.4,12.9,31.9,1.7,111
2015-02-12 08:50:03,13.4,0.8,12.6,31.9,1.7,111
2015-02-12 08:55:03,13.4,0.7,12.7,32.0,1.7,111
2015-02-12 09:00:03,13.6,0.5,13.0,32.0,1.8,111
2015-02-12 09:05:03,13.7,0.5,13.2,32.0,1.8,111
2015-02-12 09:10:03,13.7,0.9,12.8,32.0,2.0,111
2015-02-12 09:15:03,13.6,1.1,12.5,32.1,2.2,111
2015-02-12 09:20:03,13.6,1.0,12.6,32.1,2.1,111
2015-02-12 09:25:03,13.6,1.1,12.5,32.1,2.2,110
2015-02-12 09:30:03,13.6,1.0,12.7,32.1,2.2,111
2015-02-12 09:35:03,13.6,1.1,12.5,32.1,2.2,111
2015-02-12 09:40:03,13.5,0.9,12.6,32.2,2.2,110
2015-02-12 09:45:03,13.5,1.1,12.4,32.2,2.2,111
2015-02-12 09:50:03,13.5,1.0,12.5,32.2,2.2,111
2015-02-12 09:55:03,13.6,1.1,12.5,32.2,2.2,111
2015-02-12 10:00:03,13.7,1.3,12.5,32.2,2.2,111
2015-02-12 10:05:03,13.8,0.8,13.0,32.2,2.3,111
2015-02-12 10:10:03,13.8,0.6,13.2,32.3,2.2,111
2015-02-12 10:15:03,14.0,0.6,13.4,32.3,2.2,111
2015-02-12 10:20:03,14.1,0.7,13.4,32.3,2.2,111
2015-02-12 10:25:03,14.1,1.2,13.0,32.3,2.3,111
2015-02-12 10:30:03,14.1,1.2,12.9,32.3,2.3,111
2015-02-12 10:35:03,14.0,1.2,12.8,32.3,2.4,110
2015-02-12 10:40:03,14.0,1.2,12.8,32.3,2.4,111
2015-02-12 10:45:03,14.0,1.3,12.7,32.4,2.4,111
2015-02-12 10:50:03,14.0,0.7,13.2,32.4,2.4,111
2015-02-12 10:55:03,14.0,1.4,12.6,32.4,2.4,111
2015-02-12 11:00:03,14.1,1.0,13.1,32.4,2.4,111
2015-02-12 11:05:03,14.3,1.3,13.0,32.4,2.4,111
2015-02-12 11:10:03,14.4,1.1,13.3,32.4,2.4,111
2015-02-12 11:15:03,14.6,1.2,13.5,32.4,2.4,112
2015-02-12 11:20:03,14.8,1.1,13.7,32.4,2.3,111
2015-02-12 11:25:03,15.0,1.2,13.7,32.4,2.3,111
2015-02-12 11:30:03,15.1,0.7,14.3,32.4,2.3,112
2015-02-12 11:35:03,15.0,1.2,13.8,32.4,2.3,111
2015-02-12 11:40:03,15.1,1.2,13.9,32.4,2.3,111
2015-02-12 11:45:03,15.2,1.3,13.8,32.4,2.3,111
2015-02-12 11:50:03,15.2,0.8,14.5,32.4,2.3,111
2015-02-12 11:55:03,15.0,0.7,14.4,32.4,2.3,111
2015-02-12 12:00:03,14.8,0.2,14.6,32.4,2.3,111
2015-02-12 12:05:03,14.5,0.7,13.8,32.4,2.4,111
2015-02-12 12:10:03,14.6,1.1,13.4,32.4,2.4,111
2015-02-12 12:15:03,14.7,0.6,14.1,32.4,2.4,111
2015-02-12 12:20:03,14.8,0.6,14.2,32.5,2.4,112
2015-02-12 12:25:03,14.8,0.5,14.3,32.5,2.4,111
2015-02-12 12:30:03,14.8,-0.1,14.9,32.5,2.4,112
2015-02-12 12:35:03,14.7,0.0,14.6,32.5,2.4,111
2015-02-12 12:40:03,14.6,0.2,14.4,32.5,2.4,112
2015-02-12 12:45:03,14.8,1.2,13.6,32.5,2.4,111
2015-02-12 12:50:03,15.2,1.3,13.9,32.5,2.3,111
2015-02-12 12:55:03,15.6,1.4,14.2,32.4,2.3,111
2015-02-12 13:00:03,15.8,1.4,14.3,32.4,2.3,111
2015-02-12 13:05:03,15.8,1.5,14.3,32.4,2.3,111
2015-02-12 13:10:03,15.6,1.7,13.9,32.4,2.3,111
2015-02-12 13:15:03,15.5,1.4,14.2,32.4,2.3,111
2015-02-12 13:20:03,15.5,1.3,14.2,32.4,2.3,110
2015-02-12 13:25:03,15.6,1.5,14.1,32.4,2.3,111
2015-02-12 13:30:03,15.8,1.5,14.2,32.4,2.3,111
2015-02-12 13:35:03,15.8,1.7,14.0,32.4,2.3,111
2015-02-12 13:40:03,15.7,1.6,14.1,32.4,2.3,111
2015-02-12 13:45:03,15.6,1.0,14.6,32.4,2.3,111
2015-02-12 13:50:03,15.3,-0.1,15.4,32.4,2.3,112
2015-02-12 13:55:03,15.0,-0.4,15.4,32.5,2.3,111
2015-02-12 14:00:03,14.8,-1.0,15.8,32.5,2.3,112
2015-02-12 14:05:03,14.8,-0.5,15.3,32.5,2.3,111
2015-02-12 14:10:03,14.9,0.9,14.0,32.5,2.3,111
2015-02-12 14:15:03,15.1,1.2,14.0,32.4,2.3,111
2015-02-12 14:20:03,15.2,0.5,14.7,32.4,2.3,112
2015-02-12 14:25:03,15.0,0.6,14.4,32.4,2.3,111
2015-02-12 14:30:03,15.1,1.0,14.1,32.4,2.3,111
2015-02-12 14:35:03,15.1,1.1,14.0,32.4,2.3,112
2015-02-12 14:40:03,15.2,1.5,13.7,32.4,2.3,111
2015-02-12 14:45:03,15.3,1.5,13.8,32.4,2.3,110
2015-02-12 14:50:03,15.4,0.5,14.9,32.4,2.3,111
2015-02-12 14:55:03,15.0,1.1,13.9,32.4,2.3,112
2015-02-12 15:00:03,15.1,1.3,13.8,32.4,2.3,110
2015-02-12 15:05:03,15.1,0.3,14.8,32.4,2.3,111
2015-02-12 15:10:03,15.0,0.6,14.4,32.4,2.3,112
2015-02-12 15:15:03,15.0,0.6,14.4,32.4,2.3,111
2015-02-12 15:20:03,14.9,0.4,14.5,32.4,2.3,111
2015-02-12 15:25:03,14.8,0.2,14.6,32.3,2.3,111
2015-02-12 15:30:03,14.6,-0.6,15.2,32.2,2.3,111
2015-02-12 15:35:03,14.3,0.2,14.1,32.0,2.3,111
2015-02-12 15:40:03,14.1,0.5,13.6,32.0,2.3,111
2015-02-12 15:45:03,14.0,0.6,13.4,32.0,2.3,112
2015-02-12 15:50:03,13.8,0.5,13.3,32.0,2.3,111
2015-02-12 15:55:03,13.9,0.9,12.9,32.0,2.3,111
2015-02-12 16:00:03,13.8,0.9,12.9,32.1,2.4,111
2015-02-12 16:05:03,13.8,0.2,13.5,32.1,2.3,111
2015-02-12 16:10:03,13.6,-0.0,13.7,32.0,2.4,111
2015-02-12 16:15:03,13.5,0.2,13.3,32.0,2.4,112
2015-02-12 16:20:03,13.4,-0.5,13.9,32.1,2.4,112
2015-02-12 16:25:03,13.3,-0.5,13.8,32.0,2.3,111
2015-02-12 16:30:03,13.2,-0.3,13.5,31.9,2.3,112
2015-02-12 16:35:03,13.2,0.1,13.1,31.9,2.3,112
2015-02-12 16:40:03,13.2,-0.5,13.7,31.8,2.2,111
2015-02-12 16:45:03,13.2,-1.1,14.2,31.5,2.1,112
2015-02-12 16:50:03,13.1,-1.2,14.3,31.3,2.1,112
2015-02-12 16:55:03,13.0,-1.6,14.6,31.2,1.9,111
2015-02-12 17:00:03,13.0,-1.1,14.1,31.0,1.8,112
2015-02-12 17:05:03,13.0,-0.8,13.8,30.3,1.7,111
2015-02-12 17:10:03,13.0,-0.7,13.8,29.7,1.8,112
2015-02-12 17:15:03,13.1,-0.6,13.8,29.0,1.7,112
2015-02-12 17:20:03,13.2,-1.0,14.2,28.1,1.6,112
2015-02-12 17:25:03,13.3,-0.7,14.0,26.3,1.6,112
2015-02-12 17:30:03,13.3,-0.9,14.2,23.3,1.6,112
2015-02-12 17:35:03,13.3,-1.4,14.7,19.5,1.6,111
2015-02-12 17:40:03,13.3,-3.4,16.7,14.8,1.7,112
2015-02-12 17:45:03,13.2,-3.8,16.9,9.1,2.1,112
2015-02-12 17:50:03,13.0,-4.1,17.2,4.8,2.2,112
2015-02-12 17:55:03,12.9,-2.9,15.8,2.3,2.3,111
2015-02-12 18:00:03,12.8,-1.5,14.3,1.0,2.4,112
2015-02-12 18:05:03,12.8,-0.6,13.4,0.5,2.4,111
2015-02-12 18:10:03,12.8,-0.9,13.7,0.2,2.4,112
2015-02-12 18:15:03,12.9,-3.0,15.9,0.1,2.3,112
2015-02-12 18:20:03,12.8,-4.3,17.1,0.0,2.4,112
2015-02-12 18:25:03,12.6,-5.1,17.7,0.0,2.3,111
2015-02-12 18:30:03,12.5,-5.6,18.2,0.0,2.3,111
2015-02-12 18:35:03,12.5,-5.6,18.0,0.0,2.4,112
2015-02-12 18:40:03,14.1,-8.5,22.6,0.0,2.2,112
2015-02-12 18:45:03,16.2,-8.7,24.9,0.0,2.1,111
2015-02-12 18:50:03,16.8,-6.7,23.6,0.0,2.3,112
2015-02-12 18:55:03,17.0,-5.0,22.0,0.0,2.4,111
2015-02-12 19:00:03,15.4,-3.8,19.2,0.0,2.2,112
2015-02-12 19:05:03,13.4,-4.4,17.9,0.0,1.8,111
2015-02-12 19:10:03,12.8,-5.4,18.2,0.0,2.3,112
2015-02-12 19:15:03,13.4,-7.3,20.7,0.0,2.3,111
2015-02-12 19:20:03,15.7,-6.8,22.5,0.0,2.0,112
2015-02-12 19:25:03,16.6,-5.9,22.6,0.0,2.3,111
2015-02-12 19:30:03,16.9,-5.8,22.7,0.0,2.4,112
2015-02-12 19:35:03,16.9,-6.4,23.3,0.0,2.4,111
2015-02-12 19:40:03,17.0,-5.5,22.5,0.0,2.4,111
2015-02-12 19:45:03,17.0,-5.5,22.5,0.0,2.4,112
2015-02-12 19:50:03,17.0,-5.7,22.7,0.0,2.4,111
2015-02-12 19:55:03,17.1,-5.1,22.2,0.0,2.4,112
2015-02-12 20:00:03,17.1,-5.4,22.5,0.0,2.3,111
2015-02-12 20:05:03,17.2,-6.3,23.4,0.0,2.3,112
2015-02-12 20:10:04,17.2,-6.1,23.3,0.0,2.3,112
2015-02-12 20:15:04,17.2,-5.3,22.5,0.0,2.3,111
2015-02-12 20:20:04,17.2,-3.4,20.6,0.0,2.3,111
2015-02-12 20:25:04,14.8,-0.6,15.5,0.0,2.3,112
2015-02-12 20:30:04,13.5,-1.2,14.7,0.0,1.8,111
2015-02-12 20:35:04,13.1,-3.0,16.1,0.0,1.8,112
2015-02-12 20:40:04,13.1,-1.8,14.8,0.0,2.2,112
2015-02-12 20:45:04,12.9,-2.1,14.9,0.0,2.2,112
2015-02-12 20:50:04,12.9,-1.4,14.3,0.0,2.2,111
2015-02-12 20:55:04,12.9,-2.0,14.9,0.0,2.2,112
2015-02-12 21:00:04,13.0,-0.9,13.9,0.0,2.2,112
2015-02-12 21:05:04,13.1,-1.4,14.4,0.0,2.1,111
2015-02-12 21:10:04,13.1,-0.4,13.5,0.0,1.9,112
2015-02-12 21:15:04,13.2,-0.0,13.2,0.0,1.8,112
2015-02-12 21:20:04,13.2,0.9,12.4,0.0,1.7,111
2015-02-12 21:25:04,13.3,1.1,12.2,0.0,1.7,111
2015-02-12 21:30:04,13.3,0.4,12.9,0.0,1.7,111
2015-02-12 21:35:04,13.3,-3.2,16.5,0.0,1.7,112
2015-02-12 21:40:04,13.2,-4.7,18.0,0.0,1.7,112
2015-02-12 21:45:04,13.6,-7.2,20.8,0.0,1.9,111
2015-02-12 21:50:04,16.3,-11.6,27.9,0.0,2.3,112
2015-02-12 21:55:04,17.0,-14.8,31.7,0.0,2.4,111
2015-02-12 22:00:04,17.1,-11.7,28.7,0.0,2.4,112
2015-02-12 22:05:04,17.2,-7.6,24.8,0.0,2.3,111
2015-02-12 22:10:04,16.6,-3.8,20.4,0.0,2.4,112
2015-02-12 22:15:04,15.2,-2.8,18.0,0.0,2.3,111
2015-02-12 22:20:04,13.8,-3.0,16.8,0.0,1.9,112
2015-02-12 22:25:04,13.4,1.0,12.4,0.0,1.7,110
2015-02-12 22:30:04,13.3,0.9,12.4,0.0,1.7,111
2015-02-12 22:35:04,13.3,0.0,13.3,0.0,1.7,112
2015-02-12 22:40:04,13.3,1.2,12.1,0.0,1.7,111
2015-02-12 22:45:04,13.4,1.4,12.0,0.0,1.7,111
2015-02-12 22:50:04,13.4,-1.4,14.9,0.0,1.7,112
2015-02-12 22:55:04,13.4,-0.4,13.9,0.0,1.7,112
2015-02-12 23:00:04,13.4,-0.2,13.7,0.0,1.7,112
2015-02-12 23:05:04,13.4,-1.7,15.2,0.0,1.7,111
2015-02-12 23:10:04,13.4,-0.8,14.3,0.0,1.7,112
2015-02-12 23:15:04,13.8,-1.8,15.6,0.0,1.7,112
2015-02-12 23:20:04,13.5,-4.7,18.2,0.0,1.8,111
2015-02-12 23:25:04,13.9,-5.4,19.3,0.0,1.9,112
2015-02-12 23:30:04,14.4,-3.1,17.5,0.0,2.1,112
2015-02-12 23:35:04,13.7,0.6,13.1,0.0,1.8,111
2015-02-12 23:40:04,13.6,0.7,12.9,0.0,1.8,111
2015-02-12 23:45:04,13.7,0.5,13.2,0.0,1.9,112
2015-02-12 23:50:04,13.7,-0.1,13.9,0.0,1.9,111
2015-02-12 23:55:04,13.8,0.0,13.7,0.0,2.0,112
